Other Surface Observations
Issued by NWS

Home | Current Version | Previous Version | Text Only | Print | Product List | Glossary On
Versions: 1 2 3 4 5 6 7 8 9 10 11 12 13 14 15 16 17 18 19 20 21 22 23 24 25 26 27 28 29 30 31 32 33 34 35 36 37 38 39 40 41 42 43 44 45 46 47 48 49 50
719
SXUS52 KTAE 290318
OSOTAE
OSOTAE
North Florida/South Alabama/Southwest Georgia Weather Roundup
National Weather Service Tallahassee Florida
1100 PM EDT TUE MAR 28 2017

Note: "fair" indicates few or no clouds below 12,000 feet with no
significant weather and/or obstructions to visibility.

!FLZ017-115-028-034-025-290400
...North Florida...

CITY           SKY/WX    TMP DP  RH WIND       PRES   REMARKS
TALLAHASSEE    PTCLDY    68  64  87 CALM      30.03R
APALACHICOLA   CLEAR     67  66  97 CALM      30.03R
PERRY          CLEAR     65  62  90 CALM      30.04S
CROSS CITY     CLEAR     61  59  94 CALM      30.04R
JACKSONVILLE   CLEAR     68  63  84 CALM      30.01R
$$

!FLZ112-006-005-002-011-290400
...Florida Panhandle...

CITY           SKY/WX    TMP DP  RH WIND       PRES   REMARKS
MARIANNA       CLEAR     70  66  87 SW7       30.01R
BONIFAY        NOT AVBL
PANAMA CITY NW FAIR      68  66  93 S5        30.02R
TYNDALL AFB    CLEAR     70  68  94 SW5       30.03R
TYND DRONE APT FAIR      69  68  98 S6        30.03R
DE FUNIAK SPR  FAIR      67  67 100 SW3       30.03R
EGLIN AFB      MOCLDY    71  68  91 SW6       30.02R
DESTIN         PTCLDY    74  73  97 S5        30.02R
HURLBURT       PTCLDY    71  68  92 S7        30.01R
CRESTVIEW      PTCLDY    69  66  90 SW5       30.03S
PENSACOLA      MOCLDY    73  68  84 S12       30.02R
$$

!ALZ063-066-290400
...South Alabama...

CITY           SKY/WX    TMP DP  RH WIND       PRES   REMARKS
DOTHAN         CLEAR     70  65  84 SW10      30.05R
OZARK CAIRNS   CLEAR     69  64  83 SW8       30.01S
FT RUCKER HELI CLEAR     70  65  83 S7        30.01S
RUCKER HELI 3  FAIR      70  64  83 SW6       30.01R
RUCKER HELI 2  FAIR      70  63  78 SW3       30.01R
FLORALA APT    PTCLDY    68  65  90 SW6       30.03R
ANDALUSIA      CLEAR     72  64  76 S3        30.01R
TROY           PTCLDY    69  63  81 CALM      30.01R
EUFALA         MOCLDY    69  63  81 CALM      29.99R
MOBILE         PTCLDY    69  66  90 SE6       30.01R
$$

!GAZ120>161-290400
...Southwest and South Central Georgia...

CITY           SKY/WX    TMP DP  RH WIND       PRES   REMARKS
THOMASVILLE    FAIR      70  66  88 SW6       30.03R
BAINBRIDGE     CLEAR     72  63  73 SW8       30.02R
MOODY AFB      CLEAR     71  60  69 SW7       30.01R
VALDOSTA       CLEAR     66  60  81 SW3       30.02R
MOULTRIE       CLEAR     70  63  78 S3        30.02S
BLAKELY        CLEAR     73  63  68 CALM      30.02R
ALBANY         PTCLDY    73  61  65 W5        30.02R
TIFTON         CLOUDY    73  63  72 SW6       30.01R
FITZGERALD     FAIR      67  64  87 CALM      30.02S
CORDELE        MOCLDY    71  64  78 CALM      30.01R
AMERICUS       FAIR      66  59  77 CALM      30.01S
HOMERVILLE     FAIR      70  63  78 SW5       30.02R
$$

!GMZ750-755-770-775-290400
...Coastal and Buoy Obs...

STATION/POSITION TIME  TEMP    WIND        PRES    VSBY  WAVE
                       AIR SEA DIR/SP/G                  HT/PER
                 (UTC) (F)     (DEG/KT/KT) (MB)    (MI)  (FT/S)
KEATON BEACH     0300   71     250/  9/ 10 1016.6S
CEDAR KEY        0300   70     290/  4/  5 1017.6R
C TOWER          0300   69     200/  7/  8 1017.6R
APALACHICOLA BUO 0250   71 72  180/  2/  2 1017.2R         1/ 6
PANAMA CITY BUOY 0250   72 72              1017.1R         2/ 6
MOBILE BUOY      0300   73 74  160/ 12/ 16 1016.0
ORANGE BCH AL BU 0250   71 72  180/ 10/ 12 1016.1R         2/ 7
$$




USA.gov is the U.S. government's official web portal to all federal, state and local government web resources and services.